ISS
1 25544U 98067A 10113.00621263 .00025402 00000-0 16989-3 0 255
2 25544 051.6471 153.7726 0003214 195.6601 237.1721 15.75128884654787
CO-58
1 28895U 05043F 10112.67044317 .00000083 00000-0 26776-4 0 5642
2 28895 098.0238 358.9648 0019423 100.2381 260.1026 14.59878004238883
FALCON
1 30776U 07006E 10112.10783684 .00000863 00000-0 64858-4 0 8113
2 30776 035.4339 024.7464 0000726 358.5805 001.4909 15.03606723171610
MAST
1 31126U 07012K 10112.67124242 .00000087 00000-0 29959-4 0 8471
2 31126 097.9424 157.5380 0095717 039.1867 321.6197 14.53577249159991
CAPE1
1 31130U 07012P 10112.04898588 .00000402 00000-0 10287-3 0 8674
2 31130 097.9454 154.4706 0104122 048.6935 312.3137 14.52166297159514
COMPASS
1 32787U 08021E 10111.71887753 .00000134 00000-0 23589-4 0 6512
2 32787 097.8978 177.2419 0016996 107.7577 252.5501 14.81833471107135
AAUSAT2
1 32788U 08021F 10112.13245443 .00000143 00000-0 24681-4 0 6451
2 32788 097.8991 177.7652 0016769 107.0888 253.2213 14.81973506107201
DO-64
1 32789U 08021G 10112.68638221 .00001052 00000-0 13863-3 0 6620
2 32789 097.9041 178.7245 0016777 104.5495 255.7583 14.82090192107280
CO-66
1 32791U 08021J 10112.67820081 .00000582 00000-0 80535-4 0 6436
2 32791 097.8987 178.2097 0017214 102.8555 257.4579 14.81629076107233
RS-30
1 32953U 08025A 10112.83303179 .00000010 00000-0 00000 0 0 6252
2 32953 082.5005 064.0950 0017419 221.1712 138.8054 12.43004828 86865
TACSAT-3
1 35001U 09028A 10112.65769904 .00005192 00000-0 12629-3 0 2699
2 35001 040.4552 187.5540 0022851 308.7877 051.0898 15.41271120 52067
PHARMSAT
1 35002U 09028B 10111.59492430 .00004353 00000-0 10462-3 0 2544
2 35002 040.4711 192.1447 0025842 304.7765 055.0620 15.41834883 51919
HAWKSAT1
1 35003U 09028C 10112.57869348 .00009347 00000-0 20029-3 0 2717
2 35003 040.4631 182.5396 0023337 322.5446 037.3745 15.44410147 52118
CP6
1 35004U 09028D 10111.56829325 .00010436 00000-0 21854-3 0 2636
2 35004 040.4645 188.0846 0022253 315.1825 044.7195 15.45025355 51956
AEROCUB3
1 35005U 09028E 10112.54763207 .00028030 00000-0 52115-3 0 2871
2 35005 040.4709 181.7570 0019204 329.2488 030.7203 15.48024893 52118
DRAGNSAT
1 35690U 09038B 10076.22711312 .05715194 12509-4 31481-3 0 3162
2 35690 051.6170 315.4586 0004999 310.9891 057.3269 16.42150010 36561
POLLUX
1 35693U 09038E 10087.99866888 .23496735 12787-4 17715-3 0 3529
2 35693 051.6099 254.5746 0006270 294.4866 097.5899 16.52338462 38395
CASTOR
1 35694U 09038F 10112.87947127 .00064044 12840-4 17334-3 0 3067
2 35694 051.6356 134.5764 0005489 012.1850 347.9292 15.94517130 42219
METEOR-M
1 35865U 09049A 10112.75177392 .00000176 00000-0 10000-3 0 2301
2 35865 098.7633 166.9326 0002351 142.3756 217.7553 14.21829731 30840
RS-38
1 35869U 09049E 10112.72918156 .00000177 00000-0 10000-3 0 2360
2 35869 098.7616 166.9378 0004825 154.8256 205.3127 14.21979904 30841
